Location: Sungai Apap
(2.6167°N, 113.3833°E)
Time: 12:57:11
(UTC+00:00)

deb Delta 132 - Visible Passes

Search period start: 03 October 2024 00:00
Search period end: 13 October 2024 00:00
Orbit: 511 x 1476 km, 29.1° (Epoch: 02 October)

Date Brightness Start Highest point End Pass type
(mag) Time Alt. Az. Time Alt. Az. Time Alt. Az.
03 Oct ? 12:52:19 10° S 12:53:26 12° S 12:53:26 12° S visible
04 Oct ? 13:21:22 10° SSW 13:22:08 13° SSW 13:22:08 13° SSW visible
05 Oct ? 12:02:20 10° S 12:05:57 15° SSE 12:05:57 15° SSE visible
06 Oct ? 12:31:03 10° SSW 12:34:41 22° S 12:34:41 22° S visible
07 Oct ? 11:12:44 10° S 11:15:38 13° SSE 11:18:32 10° SE visible
07 Oct ? 13:00:36 10° SW 13:03:26 24° SSW 13:03:26 24° SSW visible
08 Oct ? 11:40:52 10° SSW 11:46:22 24° SSE 11:47:18 23° SE visible
08 Oct ? 13:30:41 10° SW 13:32:13 18° SW 13:32:13 18° SW visible
09 Oct ? 12:10:14 10° SW 12:16:07 42° SSE 12:16:07 42° SSE visible
09 Oct ? 21:42:21 10° NNW 21:46:20 15° NNE 21:49:53 10° NE visible
10 Oct ? 10:50:51 10° SSW 10:55:26 20° SE 11:00:02 12° ESE visible
10 Oct ? 12:40:11 10° SW 12:44:56 48° SW 12:44:56 48° SW visible
10 Oct ? 20:21:10 10° N 20:23:48 12° N 20:26:17 10° NNE visible
11 Oct ? 11:19:58 10° SSW 11:25:47 39° SE 11:28:51 28° ESE visible
11 Oct ? 13:10:41 10° WSW 13:13:46 29° W 13:13:46 29° W visible
11 Oct ? 20:50:13 10° NNW 20:55:18 17° NNE 20:59:50 10° NE visible
12 Oct ? 11:49:47 10° SW 11:56:07 73° SSE 11:57:40 57° E visible
12 Oct ? 13:41:48 10° W 13:42:35 13° W 13:42:35 13° W visible
12 Oct ? 19:32:48 13° NNE 19:32:48 13° NNE 19:36:09 10° NE visible
12 Oct ? 21:19:43 10° NNW 21:26:30 27° NNE 21:32:11 10° ENE visible
